Charlotte, NC

10:26 PM EDT on April 24, 2017 (GMT -0400)
Charlotte-Douglas International

Weather History for KCLT - September, 2012

Change the Weather History Date:

Wednesday, September 26, 2012

  Actual Average Record
Temperature  
Mean Temperature 69 °F 67 °F  
Max Temperature 81 °F 78 °F 94 °F (1961)
Min Temperature 56 °F 57 °F 42 °F (1950)
Degree Days  
Heating Degree Days 0 2  
Month to date heating degree days 6 13  
Since 1 July heating degree days 6 13  
Cooling Degree Days 4 4  
Month to date cooling degree days 191 185  
Year to date cooling degree days 1741 1462  
Growing Degree Days 18 (Base 50)    
Moisture  
Dew Point 56 °F    
Average Humidity 65    
Maximum Humidity 87    
Minimum Humidity 42    
Precipitation  
Precipitation 0.00 in 0.11 in 3.89 in (2016)
Month to date precipitation 4.21 2.78  
Year to date precipitation 27.38 31.38  
Snow  
Snow 0.00 in 0.00 in 0.00 in ()
Month to date snowfall 0.0 0.0  
Since 1 July snowfall 0.0 0.0  
Since 1 September snowfall 0.0 0.0  
Snow Depth 0.00 in    
Sea Level Pressure  
Sea Level Pressure 30.20 in    
Wind  
Wind Speed 4 mph (SSW)    
Max Wind Speed 12 mph    
Max Gust Speed 18 mph    
Visibility 10 miles    
Events      
T = Trace of Precipitation, MM = Missing Value Source: NWS Daily Summary

Daily Weather History Graph

Daily Weather History Graph

Search for Another Location

Airport or City:

Trip Planner

Search our weather history database for the weather conditions in past years. The results will help you decide how hot, cold, wet, or windy it might be!

Date:

Astronomy

Sep. 26, 2012 Rise Set
Actual Time 7:15 AM EDT 7:14 PM EDT
Civil Twilight 6:49 AM EDT 7:39 PM EDT
Nautical Twilight 6:20 AM EDT 8:08 PM EDT
Astronomical Twilight 5:50 AM EDT 8:38 PM EDT
Moon 5:07 PM EDT (9/26) 3:46 AM EDT (9/26)
Length of Visible Light 12h 49m
Length of Day
11h 58m
Waxing Gibbous, 88% of the Moon is Illuminated
Sep 26
Waxing Gibbous
Sep 29
Full
Oct 8
Last Quarter
Oct 15
New
Oct 21
First Quarter

Hourly Weather History & Observations

Time (EDT) Temp. Heat Index Dew Point Humidity Pressure Visibility Wind Dir Wind Speed Gust Speed Precip Events Conditions
12:52 AM 60.1 °F - 55.0 °F 83% 30.20 in 10.0 mi Calm Calm - N/A   Partly Cloudy
1:52 AM 60.1 °F - 55.0 °F 83% 30.21 in 10.0 mi Calm Calm - N/A   Scattered Clouds
2:52 AM 59.0 °F - 55.0 °F 87% 30.19 in 10.0 mi SSE 3.5 mph - N/A   Scattered Clouds
3:52 AM 59.0 °F - 53.6 °F 82% 30.19 in 10.0 mi SSE 3.5 mph - N/A   Clear
4:52 AM 57.9 °F - 54.0 °F 87% 30.18 in 10.0 mi Calm Calm - N/A   Partly Cloudy
5:52 AM 57.0 °F - 53.1 °F 87% 30.18 in 10.0 mi Calm Calm - N/A   Partly Cloudy
6:52 AM 57.9 °F - 53.1 °F 84% 30.19 in 10.0 mi Calm Calm - N/A   Clear
7:52 AM 57.2 °F - 53.6 °F 88% 30.22 in 10.0 mi South 4.6 mph - N/A   Clear
8:52 AM 63.0 °F - 57.0 °F 81% 30.22 in 10.0 mi SSW 4.6 mph - N/A   Clear
9:52 AM 69.1 °F - 55.9 °F 63% 30.23 in 10.0 mi SW 8.1 mph - N/A   Clear
10:52 AM 73.0 °F - 55.9 °F 55% 30.24 in 10.0 mi SW 9.2 mph - N/A   Clear
11:52 AM 75.0 °F - 55.9 °F 51% 30.23 in 10.0 mi WSW 5.8 mph - N/A   Clear
12:52 PM 77.0 °F - 57.0 °F 50% 30.22 in 10.0 mi Variable 3.5 mph - N/A   Clear
1:52 PM 79.0 °F - 57.9 °F 48% 30.19 in 10.0 mi Variable 4.6 mph - N/A   Clear
2:52 PM 81.0 °F 81.1 °F 57.9 °F 45% 30.18 in 10.0 mi South 5.8 mph - N/A   Scattered Clouds
3:52 PM 80.1 °F 80.4 °F 57.0 °F 45% 30.17 in 10.0 mi Calm Calm - N/A   Scattered Clouds
4:52 PM 81.0 °F 80.8 °F 55.9 °F 42% 30.16 in 10.0 mi South 5.8 mph - N/A   Scattered Clouds
5:52 PM 79.0 °F - 57.9 °F 48% 30.16 in 10.0 mi SW 3.5 mph - N/A   Scattered Clouds
6:52 PM 75.9 °F - 57.9 °F 54% 30.17 in 10.0 mi South 6.9 mph - N/A   Partly Cloudy
7:52 PM 71.1 °F - 59.0 °F 66% 30.17 in 10.0 mi South 3.5 mph - N/A   Partly Cloudy
8:52 PM 70.0 °F - 59.0 °F 68% 30.19 in 10.0 mi South 5.8 mph - N/A   Clear
9:52 PM 68.0 °F - 59.0 °F 73% 30.21 in 10.0 mi Calm Calm - N/A   Partly Cloudy
10:52 PM 66.2 °F - 57.2 °F 73% 30.21 in 10.0 mi South 4.6 mph - N/A   Partly Cloudy
11:52 PM 63.0 °F - 57.9 °F 84% 30.20 in 10.0 mi Calm Calm - N/A   Mostly Cloudy